Change the Weather History Date:

Monday, January 27, 2014

  Actual Average (KMSP) Record (KMSP)
Temperature  
Mean Temperature -7 °F 16 °F  
Max Temperature -3 °F 24 °F 47 °F (1934)
Min Temperature -11 °F 8 °F -23 °F (1950)
Degree Days  
Heating Degree Days 72 49  
Month to date heating degree days 1339  
Since 1 July heating degree days 4362  
Cooling Degree Days 0 0  
Month to date cooling degree days 0  
Year to date cooling degree days 0  
Moisture  
Dew Point -20 °F    
Average Humidity 55    
Maximum Humidity 66    
Minimum Humidity 48    
Precipitation  
Precipitation 0.00 in 0.03 in 0.49 in (2013)
Month to date precipitation 0.80  
Year to date precipitation 0.80  
Snow  
Snow 0.00 in 0.40 in 3.80 in (1916)
Month to date snowfall 10.8  
Since 1 July snowfall 32.6  
Snow Depth -    
Sea Level Pressure  
Sea Level Pressure 30.33 in    
Wind  
Wind Speed 14 mph (WNW)    
Max Wind Speed 21 mph    
Max Gust Speed 29 mph    
Visibility 10 miles    
Events      
T = Trace of Precipitation, MM = Missing Value Source: NWS Daily Summary

Daily Weather History Graph

Daily Weather History Graph

Search for Another Location

Airport or City:

Trip Planner

Search our weather history database for the weather conditions in past years. The results will help you decide how hot, cold, wet, or windy it might be!

Date:

Astronomy

Jan. 27, 2014 Rise Set
Actual Time 7:36 AM CST 5:13 PM CST
Civil Twilight 7:05 AM CST 5:45 PM CST
Nautical Twilight 6:29 AM CST 6:20 PM CST
Astronomical Twilight 5:55 AM CST 6:55 PM CST
Moon 4:20 AM CST 1:58 PM CST
Length of Visible Light 10h 39m
Length of Day
9h 36m
Waning Crescent, 14% of the Moon is Illuminated
Jan 27
Waning Crescent
Jan 30
New
Feb 6
First Quarter
Feb 14
Full
Feb 22
Last Quarter

Hourly Weather History & Observations

Time (CST) Temp. Windchill Dew Point Humidity Pressure Visibility Wind Dir Wind Speed Gust Speed Precip Events Conditions
12:12 AM -3.5 °F -26.9 °F -14.8 °F 58% 30.08 in 7.0 mi WNW 20.7 mph 26.5 mph N/A   Clear
12:32 AM -4.2 °F -26.7 °F -15.9 °F 57% 30.09 in 10.0 mi WNW 18.4 mph - N/A   Clear
12:52 AM -4.5 °F -27.1 °F -16.6 °F 56% 30.10 in 10.0 mi WNW 18.4 mph 26.5 mph N/A   Clear
1:12 AM -5.3 °F -28.1 °F -17.3 °F 56% 30.12 in 10.0 mi WNW 18.4 mph 23.0 mph N/A   Clear
1:32 AM -5.8 °F -27.5 °F -18.0 °F 56% 30.13 in 10.0 mi WNW 16.1 mph 23.0 mph N/A   Clear
1:52 AM -6.2 °F -28.0 °F -18.4 °F 55% 30.14 in 10.0 mi NW 16.1 mph 24.2 mph N/A   Clear
2:12 AM -6.7 °F -27.2 °F -19.1 °F 55% 30.15 in 10.0 mi NW 13.8 mph 24.2 mph N/A   Clear
2:32 AM -7.1 °F -25.9 °F -19.5 °F 55% 30.17 in 10.0 mi WNW 11.5 mph 21.9 mph N/A   Clear
2:52 AM -7.4 °F -29.6 °F -19.5 °F 56% 30.18 in 10.0 mi WNW 16.1 mph 23.0 mph N/A   Clear
3:12 AM -7.8 °F -30.7 °F -20.2 °F 55% 30.18 in 10.0 mi NW 17.3 mph 25.3 mph N/A   Clear
3:32 AM -8.5 °F -31.0 °F -20.4 °F 56% 30.20 in 10.0 mi WNW 16.1 mph 20.7 mph N/A   Clear
3:52 AM -8.5 °F -31.0 °F -20.6 °F 56% 30.20 in 10.0 mi WNW 16.1 mph 20.7 mph N/A   Clear
4:12 AM -8.9 °F -31.4 °F -20.9 °F 56% 30.22 in 10.0 mi NW 16.1 mph 23.0 mph N/A   Clear
4:32 AM -9.2 °F -31.2 °F -21.1 °F 56% 30.23 in 10.0 mi NW 15.0 mph 20.7 mph N/A   Clear
4:52 AM -9.6 °F -33.7 °F -21.5 °F 56% 30.23 in 10.0 mi NW 18.4 mph 28.8 mph N/A   Clear
5:12 AM -9.8 °F -28.3 °F -21.6 °F 56% 30.24 in 10.0 mi NW 10.4 mph 19.6 mph N/A   Clear
5:32 AM -9.9 °F -31.3 °F -22.0 °F 55% 30.25 in 10.0 mi NW 13.8 mph 18.4 mph N/A   Clear
5:52 AM -10.3 °F -30.0 °F -22.2 °F 56% 30.26 in 10.0 mi NW 11.5 mph 19.6 mph N/A   Clear
6:12 AM -10.5 °F -31.1 °F -22.9 °F 54% 30.27 in 10.0 mi NW 12.7 mph 19.6 mph N/A   Clear
6:32 AM -10.8 °F -32.5 °F -23.1 °F 55% 30.28 in 10.0 mi NW 13.8 mph - N/A   Clear
6:52 AM -11.2 °F -32.1 °F -23.8 °F 54% 30.29 in 10.0 mi NW 12.7 mph 20.7 mph N/A   Clear
7:12 AM -11.2 °F -30.1 °F -23.8 °F 54% 30.30 in 10.0 mi NW 10.4 mph 19.6 mph N/A   Clear
7:32 AM -11.6 °F -33.4 °F -23.8 °F 55% 30.31 in 10.0 mi NW 13.8 mph 20.7 mph N/A   Clear
7:52 AM -11.6 °F -34.2 °F -23.8 °F 55% 30.32 in 10.0 mi NW 15.0 mph 18.4 mph N/A   Clear
8:12 AM -11.6 °F -32.5 °F -23.8 °F 55% 30.32 in 10.0 mi WNW 12.7 mph 19.6 mph N/A   Clear
8:32 AM -11.4 °F -33.1 °F -23.6 °F 55% 30.34 in 10.0 mi NW 13.8 mph 20.7 mph N/A   Clear
8:52 AM -11.2 °F -32.9 °F -23.1 °F 56% 30.35 in 10.0 mi NW 13.8 mph 21.9 mph N/A   Clear
9:12 AM -11.2 °F -35.2 °F -23.6 °F 54% 30.35 in 10.0 mi WNW 17.3 mph 23.0 mph N/A   Clear
9:32 AM -10.5 °F -29.2 °F -22.9 °F 54% 30.36 in 10.0 mi NW 10.4 mph 18.4 mph N/A   Clear
9:52 AM -10.1 °F -30.7 °F -22.7 °F 54% 30.36 in 10.0 mi NW 12.7 mph 17.3 mph N/A   Clear
10:12 AM -9.4 °F -28.9 °F -21.1 °F 57% 30.37 in 10.0 mi WNW 11.5 mph - N/A   Clear
10:32 AM -9.4 °F -28.9 °F -21.5 °F 56% 30.38 in 10.0 mi WNW 11.5 mph 17.3 mph N/A   Clear
10:52 AM -8.5 °F -27.8 °F -21.3 °F 54% 30.39 in 10.0 mi NW 11.5 mph 17.3 mph N/A   Clear
11:12 AM -8.0 °F -27.1 °F -20.7 °F 54% 30.39 in 10.0 mi WNW 11.5 mph - N/A   Clear
11:32 AM -7.6 °F -26.6 °F -20.7 °F 53% 30.39 in 10.0 mi WNW 11.5 mph 16.1 mph N/A   Clear
11:52 AM -7.1 °F -23.9 °F -20.6 °F 52% 30.40 in 10.0 mi West 9.2 mph - N/A   Clear
12:12 PM -6.5 °F -23.3 °F -20.4 °F 51% 30.40 in 10.0 mi West 9.2 mph - N/A   Clear
12:32 PM -5.8 °F -25.2 °F -19.8 °F 51% 30.39 in 10.0 mi West 12.7 mph 17.3 mph N/A   Clear
12:52 PM -5.1 °F -23.5 °F -19.5 °F 50% 30.39 in 10.0 mi West 11.5 mph 17.3 mph N/A   Clear
1:12 PM -4.5 °F -22.8 °F -19.3 °F 49% 30.39 in 10.0 mi WNW 11.5 mph - N/A   Clear
1:32 PM -4.4 °F -24.2 °F -19.3 °F 49% 30.38 in 10.0 mi West 13.8 mph - N/A   Clear
1:52 PM -3.8 °F -22.7 °F -18.9 °F 48% 30.38 in 10.0 mi West 12.7 mph 18.4 mph N/A   Clear
2:12 PM -3.6 °F -21.7 °F -18.8 °F 48% 30.38 in 10.0 mi West 11.5 mph 18.4 mph N/A   Clear
2:32 PM -3.3 °F -19.3 °F -18.6 °F 48% 30.38 in 10.0 mi West 9.2 mph 16.1 mph N/A   Clear
2:52 PM -3.3 °F -19.3 °F -18.6 °F 48% 30.38 in 10.0 mi West 9.2 mph 17.3 mph N/A   Clear
3:12 PM -3.1 °F -19.1 °F -18.4 °F 48% 30.38 in 10.0 mi West 9.2 mph - N/A   Clear
3:32 PM -3.1 °F -19.1 °F -18.4 °F 48% 30.38 in 10.0 mi West 9.2 mph 16.1 mph N/A   Clear
3:52 PM -3.1 °F -19.1 °F -17.7 °F 50% 30.39 in 10.0 mi West 9.2 mph - N/A   Clear
4:12 PM -3.1 °F -15.2 °F -17.7 °F 50% 30.39 in 10.0 mi West 5.8 mph - N/A   Clear
4:32 PM -3.1 °F -19.1 °F -17.3 °F 51% 30.39 in 10.0 mi West 9.2 mph - N/A   Clear
4:52 PM -3.3 °F -19.3 °F -17.3 °F 51% 30.39 in 10.0 mi West 9.2 mph - N/A   Clear
5:12 PM -3.8 °F -18.8 °F -17.5 °F 52% 30.39 in 10.0 mi West 8.1 mph - N/A   Clear
5:32 PM -4.2 °F -18.0 °F -17.5 °F 53% 30.40 in 10.0 mi West 6.9 mph - N/A   Clear
5:52 PM -4.5 °F -22.8 °F -17.9 °F 53% 30.40 in 10.0 mi WNW 11.5 mph 17.3 mph N/A   Clear
6:12 PM -4.9 °F -21.3 °F -17.5 °F 55% 30.40 in 10.0 mi West 9.2 mph - N/A   Clear
6:32 PM -4.9 °F -21.3 °F -17.0 °F 56% 30.40 in 10.0 mi West 9.2 mph - N/A   Clear
6:52 PM -5.3 °F -19.3 °F -17.0 °F 57% 30.40 in 10.0 mi West 6.9 mph - N/A   Clear
7:12 PM -5.4 °F -23.0 °F -17.0 °F 58% 30.40 in 10.0 mi West 10.4 mph - N/A   Clear
7:32 PM -5.8 °F -22.4 °F -17.1 °F 58% 30.41 in 10.0 mi West 9.2 mph - N/A   Clear
7:52 PM -6.0 °F -21.5 °F -17.1 °F 59% 30.40 in 10.0 mi West 8.1 mph - N/A   Clear
8:12 PM -6.2 °F -22.8 °F -17.5 °F 58% 30.41 in 10.0 mi West 9.2 mph 16.1 mph N/A   Clear
8:32 PM -6.5 °F -23.3 °F -17.9 °F 58% 30.40 in 10.0 mi WNW 9.2 mph 17.3 mph N/A   Clear
8:52 PM -6.9 °F -21.2 °F -18.2 °F 58% 30.41 in 10.0 mi WNW 6.9 mph - N/A   Clear
9:12 PM -7.1 °F -22.8 °F -18.4 °F 58% 30.41 in 10.0 mi West 8.1 mph - N/A   Clear
9:32 PM -7.2 °F -21.7 °F -18.4 °F 58% 30.41 in 10.0 mi West 6.9 mph - N/A   Clear
9:52 PM -7.6 °F -23.4 °F -18.4 °F 59% 30.41 in 10.0 mi West 8.1 mph - N/A   Clear
10:12 PM -7.6 °F -18.8 °F -18.4 °F 59% 30.40 in 10.0 mi West 4.6 mph - N/A   Clear
10:32 PM -8.3 °F -21.4 °F -18.4 °F 61% 30.40 in 10.0 mi West 5.8 mph - N/A   Clear
10:52 PM -8.9 °F -20.2 °F -18.4 °F 63% 30.40 in 10.0 mi West 4.6 mph - N/A   Clear
11:12 PM -9.4 °F -18.6 °F -18.4 °F 65% 30.40 in 10.0 mi WSW 3.5 mph - N/A   Clear
11:32 PM -9.6 °F -18.8 °F -18.4 °F 65% 30.40 in 10.0 mi West 3.5 mph - N/A   Clear
11:52 PM -9.8 °F -19.0 °F -18.4 °F 66% 30.39 in 10.0 mi West 3.5 mph - N/A   Clear